Location: Gälforsberget
(66.6500°N, 22.4167°E)
Time: 08:46:21
(UTC+00:00)

Cosmos 1782 - Pass Details

Date: 11 April 2026
Orbit: 459 x 465 km, 82.5° (Epoch: 9 May)

Event Time Altitude Azimuth Distance (km) Brightness Sun altitude
Exits shadow 23:15:15 23° 157° (SSE) 1,031 3.7 -14.3°
Maximum altitude 23:17:03 43° 98° (E) 662 3.2 -14.3°
Drops below altitude 10° 23:20:25 10° 26° (NNE) 1,624 6.5 -14.2°
Sets 23:22:33 0° 20° (NNE) 2,503 8.1 -14.2°
